This is the latest recevied weather packets stored in our database for station/object vk4zu-13. If no packets are shown the sender has not sent any weather packets the latest 10 day(s).
| Time | Temp. | Humidity | Pressure | Rain* | Wind** | Luminosity | Snow |
|---|---|---|---|---|---|---|---|
| 1777444082 | 20.56° C | 80% | 1024.7 hPa | 0.51 mm | - | 23 W/m² | - |
| 1777444011 | 20.56° C | 80% | 1024.7 hPa | 0.51 mm | - | 21 W/m² | - |
| 1777443941 | 20.56° C | 79% | 1024.7 hPa | 0.51 mm | - | 21 W/m² | - |
| 1777443871 | 20.56° C | 79% | 1024.6 hPa | 0.51 mm | - | 18 W/m² | - |
| 1777443801 | 20.56° C | 79% | 1024.7 hPa | 0.51 mm | - | 18 W/m² | - |
| 1777443734 | 21.11° C | 79% | 1024.7 hPa | 0.51 mm | - | 19 W/m² | - |
| 1777443668 | 21.11° C | 78% | 1024.7 hPa | 0.51 mm | - | 19 W/m² | - |
| 1777443610 | 21.11° C | 78% | 1024.7 hPa | 0.51 mm | - | 21 W/m² | - |
| 1777443483 | 21.67° C | 78% | 1024.8 hPa | 0.25 mm | - | 21 W/m² | - |
| 1777443429 | 21.67° C | 78% | 1024.6 hPa | 0 mm | - | 28 W/m² | - |
| 1777443354 | 21.67° C | 79% | 1024.8 hPa | 0 mm | - | 35 W/m² | - |
| 1777443284 | 21.67° C | 79% | 1024.6 hPa | 0 mm | - | 51 W/m² | - |
| 1777443213 | 21.67° C | 78% | 1024.3 hPa | 0 mm | - | 79 W/m² | - |
| 1777443145 | 21.67° C | 78% | 1024.1 hPa | 0 mm | - | 67 W/m² | - |
| 1777443073 | 21.67° C | 78% | 1024 hPa | 0 mm | - | 49 W/m² | - |
| 1777443002 | 21.67° C | 76% | 1024 hPa | 0 mm | - | 37 W/m² | - |
| 1777442933 | 21.67° C | 76% | 1024 hPa | 0 mm | - | 35 W/m² | - |
| 1777442871 | 21.67° C | 77% | 1024 hPa | 0 mm | - | 37 W/m² | - |
| 1777442806 | 21.67° C | 76% | 1024 hPa | 0 mm | - | 39 W/m² | - |
| 1777442749 | 21.67° C | 76% | 1024 hPa | 0 mm | - | 44 W/m² | - |
| 1777442714 | 21.67° C | 76% | 1024.1 hPa | 0 mm | - | 44 W/m² | - |
| 1777442693 | 21.67° C | 78% | 1024 hPa | 0 mm | - | 51 W/m² | - |
| 1777442556 | 21.67° C | 78% | 1024 hPa | 0 mm | - | 54 W/m² | - |
| 1777442489 | 21.67° C | 77% | 1024.1 hPa | 0 mm | - | 65 W/m² | - |
| 1777442415 | 21.67° C | 78% | 1024 hPa | 0 mm | - | 70 W/m² | - |
* Rain latest hour (hover to see other rain measurements)
** Current wind speed in m/s (hover to see current wind gust speed)